When you browse on this site, cookies collect data to enhance your experience and personalize the content and advertising you see.
Visit our Privacy Policy to learn more. By continuing to use the site, you agree to this use of cookies and data.
  • In Switzerland
  • List of Countries
  • For 7 days
  • Water Temperature
  • Weather Map
  • Weather Widgets
  • user-avatar
    Login

    Hourly Weather Bekescsaba

    Today, 27 May, Wednesday

    Time Temperature Precipitation Wind Pressure Humidity
    00:00 +10°C° 0 mm 4 mps 760 mmHg 89%
    01:00 +8°C° 0 mm 4 mps 760 mmHg 90%
    02:00 +8°C° 0 mm 4 mps 760 mmHg 91%
    03:00 +10°C° 0 mm 4 mps 760 mmHg 91%
    04:00 +10°C° 0 mm 4 mps 760 mmHg 92%
    05:00 +10°C° 0 mm 5 mps 760 mmHg 88%
    06:00 +12°C° 0 mm 5 mps 760 mmHg 85%
    07:00 +13°C° 0 mm 6 mps 760 mmHg 81%
    08:00 +14°C° 0.1 mm 6 mps 761 mmHg 77%
    09:00 +16°C° 0.1 mm 6 mps 761 mmHg 73%
    10:00 +17°C° 0.1 mm 6 mps 761 mmHg 69%
    11:00 +17°C° 0.7 mm 6 mps 760 mmHg 69%
    12:00 +19°C° 0.7 mm 6 mps 760 mmHg 70%
    13:00 +19°C° 0.7 mm 6 mps 760 mmHg 70%
    14:00 +19°C° 0.2 mm 6 mps 759 mmHg 70%
    15:00 +19°C° 0.2 mm 6 mps 759 mmHg 70%
    16:00 +19°C° 0.2 mm 6 mps 759 mmHg 70%
    17:00 +17°C° 0.1 mm 5 mps 759 mmHg 75%
    18:00 +15°C° 0.1 mm 4 mps 759 mmHg 79%
    19:00 +14°C° 0.1 mm 3 mps 759 mmHg 84%
    20:00 +13°C° 0 mm 3 mps 759 mmHg 85%
    21:00 +12°C° 0 mm 3 mps 759 mmHg 87%
    22:00 +12°C° 0 mm 3 mps 759 mmHg 89%
    23:00 +11°C° 0 mm 3 mps 759 mmHg 90%

    Tomorrow, 28 May, Thursday

    Time Temperature Precipitation Wind Pressure Humidity
    00:00 +11°C° 0 mm 3 mps 759 mmHg 90%
    01:00 +10°C° 0 mm 3 mps 759 mmHg 90%
    02:00 +10°C° 0 mm 3 mps 758 mmHg 91%
    03:00 +10°C° 0 mm 3 mps 758 mmHg 91%
    04:00 +9°C° 0 mm 3 mps 758 mmHg 91%
    05:00 +11°C° 0 mm 3 mps 758 mmHg 87%
    06:00 +12°C° 0 mm 4 mps 758 mmHg 83%
    07:00 +14°C° 0 mm 4 mps 758 mmHg 79%
    08:00 +15°C° 0.4 mm 4 mps 758 mmHg 75%
    09:00 +18°C° 0.4 mm 4 mps 757 mmHg 70%
    10:00 +19°C° 0.4 mm 5 mps 757 mmHg 66%
    11:00 +19°C° 0.3 mm 5 mps 757 mmHg 63%
    12:00 +20°C° 0.3 mm 5 mps 756 mmHg 61%
    13:00 +20°C° 0.3 mm 5 mps 755 mmHg 58%
    14:00 +20°C° 0.1 mm 5 mps 755 mmHg 58%
    15:00 +20°C° 0.1 mm 5 mps 755 mmHg 59%
    16:00 +20°C° 0.1 mm 4 mps 755 mmHg 59%
    17:00 +18°C° 0.1 mm 4 mps 754 mmHg 65%
    18:00 +17°C° 0.1 mm 3 mps 754 mmHg 71%
    19:00 +14°C° 0.1 mm 3 mps 754 mmHg 77%
    20:00 +14°C° 0 mm 3 mps 754 mmHg 79%
    21:00 +13°C° 0 mm 3 mps 755 mmHg 80%
    22:00 +12°C° 0 mm 3 mps 755 mmHg 81%
    23:00 +12°C° 0 mm 3 mps 755 mmHg 83%

    Day after tomorrow, 29 May, Friday

    Time Temperature Precipitation Wind Pressure Humidity
    00:00 +11°C° 0 mm 3 mps 754 mmHg 85%
    01:00 +11°C° 0 mm 3 mps 754 mmHg 87%
    02:00 +10°C° 0 mm 3 mps 754 mmHg 87%
    03:00 +10°C° 0 mm 3 mps 754 mmHg 87%
    04:00 +10°C° 0 mm 3 mps 754 mmHg 87%
    05:00 +11°C° 0 mm 3 mps 755 mmHg 84%
    06:00 +12°C° 0 mm 4 mps 755 mmHg 81%
    07:00 +13°C° 0 mm 4 mps 755 mmHg 78%
    08:00 +14°C° 0.1 mm 4 mps 755 mmHg 74%
    09:00 +17°C° 0.1 mm 4 mps 755 mmHg 71%
    10:00 +18°C° 0.1 mm 4 mps 755 mmHg 67%
    11:00 +18°C° 0.9 mm 4 mps 755 mmHg 67%
    12:00 +19°C° 0.9 mm 4 mps 754 mmHg 67%
    13:00 +19°C° 0.9 mm 4 mps 754 mmHg 67%
    14:00 +19°C° 0.7 mm 4 mps 754 mmHg 68%
    15:00 +19°C° 0.7 mm 4 mps 754 mmHg 70%
    16:00 +19°C° 0.7 mm 4 mps 753 mmHg 71%
    17:00 +17°C° 0.2 mm 4 mps 753 mmHg 75%
    18:00 +16°C° 0.2 mm 3 mps 753 mmHg 80%
    19:00 +15°C° 0.2 mm 2 mps 753 mmHg 84%
    20:00 +14°C° 0 mm 2 mps 753 mmHg 85%
    21:00 +13°C° 0 mm 2 mps 754 mmHg 86%
    22:00 +13°C° 0 mm 2 mps 754 mmHg 86%
    23:00 +12°C° 0 mm 2 mps 753 mmHg 87%

    30 May, Saturday

    Time Temperature Precipitation Wind Pressure Humidity
    00:00 +12°C° 0 mm 2 mps 753 mmHg 88%
    01:00 +12°C° 0 mm 2 mps 753 mmHg 89%
    02:00 +10°C° 0 mm 2 mps 753 mmHg 89%
    03:00 +10°C° 0 mm 2 mps 753 mmHg 90%
    04:00 +10°C° 0 mm 2 mps 753 mmHg 90%
    05:00 +12°C° 0 mm 2 mps 753 mmHg 86%
    06:00 +13°C° 0 mm 2 mps 754 mmHg 82%
    07:00 +14°C° 0 mm 2 mps 754 mmHg 78%
    08:00 +16°C° 0 mm 2 mps 754 mmHg 72%
    09:00 +17°C° 0 mm 2 mps 754 mmHg 67%
    10:00 +18°C° 0 mm 2 mps 754 mmHg 61%
    11:00 +20°C° 0.2 mm 1 mps 754 mmHg 60%
    12:00 +20°C° 0.2 mm 1 mps 753 mmHg 59%
    13:00 +21°C° 0.2 mm 1 mps 753 mmHg 58%
    14:00 +20°C° 0.9 mm 1 mps 753 mmHg 61%
    15:00 +20°C° 0.9 mm 1 mps 753 mmHg 64%
    16:00 +20°C° 0.9 mm 1 mps 752 mmHg 67%
    17:00 +19°C° 0.7 mm 1 mps 752 mmHg 71%
    18:00 +16°C° 0.7 mm 1 mps 752 mmHg 76%
    19:00 +15°C° 0.7 mm 1 mps 752 mmHg 80%
    20:00 +14°C° 0 mm 1 mps 752 mmHg 82%
    21:00 +13°C° 0 mm 1 mps 753 mmHg 84%
    22:00 +12°C° 0 mm 2 mps 753 mmHg 86%
    23:00 +12°C° 0 mm 2 mps 753 mmHg 87%

    31 May, Sunday

    Time Temperature Precipitation Wind Pressure Humidity
    00:00 +10°C° 0 mm 2 mps 753 mmHg 88%
    01:00 +10°C° 0 mm 1 mps 753 mmHg 89%
    02:00 +9°C° 0 mm 2 mps 753 mmHg 90%
    03:00 +8°C° 0 mm 2 mps 753 mmHg 90%
    04:00 +8°C° 0 mm 2 mps 753 mmHg 91%
    05:00 +9°C° 0 mm 2 mps 753 mmHg 87%
    06:00 +10°C° 0 mm 2 mps 753 mmHg 83%
    07:00 +13°C° 0 mm 2 mps 753 mmHg 80%
    08:00 +14°C° 0 mm 2 mps 753 mmHg 74%
    09:00 +16°C° 0 mm 2 mps 753 mmHg 69%
    10:00 +17°C° 0 mm 3 mps 753 mmHg 64%
    11:00 +18°C° 0 mm 2 mps 753 mmHg 61%
    12:00 +19°C° 0 mm 2 mps 753 mmHg 58%
    13:00 +19°C° 0 mm 2 mps 752 mmHg 55%
    14:00 +19°C° 0.1 mm 2 mps 752 mmHg 59%
    15:00 +19°C° 0.1 mm 3 mps 752 mmHg 63%
    16:00 +19°C° 0.1 mm 3 mps 752 mmHg 67%
    17:00 +18°C° 0 mm 2 mps 752 mmHg 71%
    18:00 +17°C° 0 mm 2 mps 752 mmHg 76%
    19:00 +15°C° 0 mm 2 mps 752 mmHg 81%
    20:00 +15°C° 0 mm 2 mps 752 mmHg 83%
    21:00 +14°C° 0 mm 2 mps 752 mmHg 85%
    22:00 +13°C° 0 mm 2 mps 752 mmHg 87%
    23:00 +13°C° 0 mm 2 mps 752 mmHg 89%

    1 June, Monday

    Time Temperature Precipitation Wind Pressure Humidity
    00:00 +13°C° 0 mm 2 mps 752 mmHg 90%
    01:00 +12°C° 0 mm 2 mps 752 mmHg 91%
    02:00 +12°C° 0 mm 2 mps 751 mmHg 92%
    03:00 +12°C° 0 mm 2 mps 751 mmHg 92%
    04:00 +12°C° 0 mm 2 mps 751 mmHg 92%
    05:00 +13°C° 0 mm 2 mps 751 mmHg 91%
    06:00 +13°C° 0 mm 2 mps 751 mmHg 89%
    07:00 +14°C° 0 mm 2 mps 751 mmHg 88%
    08:00 +15°C° 0.1 mm 2 mps 751 mmHg 87%
    09:00 +16°C° 0.1 mm 2 mps 751 mmHg 86%
    10:00 +16°C° 0.1 mm 2 mps 751 mmHg 85%
    11:00 +17°C° 0.3 mm 2 mps 751 mmHg 84%
    12:00 +17°C° 0.3 mm 2 mps 751 mmHg 83%
    13:00 +19°C° 0.3 mm 1 mps 751 mmHg 82%
    14:00 +18°C° 0.5 mm 2 mps 751 mmHg 80%
    15:00 +19°C° 0.5 mm 2 mps 750 mmHg 78%
    16:00 +19°C° 0.5 mm 2 mps 750 mmHg 77%
    17:00 +18°C° 0.2 mm 2 mps 750 mmHg 79%
    18:00 +17°C° 0.2 mm 2 mps 750 mmHg 82%
    19:00 +16°C° 0.2 mm 2 mps 750 mmHg 84%
    20:00 +15°C° 0 mm 2 mps 751 mmHg 87%
    21:00 +14°C° 0 mm 3 mps 751 mmHg 89%
    22:00 +13°C° 0 mm 3 mps 751 mmHg 91%
    23:00 +12°C° 0 mm 3 mps 751 mmHg 91%
    Show more